Wind_Speed
12 13 13 14 13 14 15 15 14 14 15 16 16 17 17 17 16 15 14 13 12 11 10 9 9 9 9 9 9 8 8 10 11 13 15 16 15 15 15 14 16 18 18 19 22 24 24 24 27 30 30 28 27 28 28 27 26 26 25 22 21 21 23
11 12 13 13 13 14 15 15 14 13 13 15 16 17 18 18 17 16 15 14 13 12 11 10 9 9 9 9 9 9 8 9 10 11 13 15 15 15 15 15 16 17 17 17 18 22 24 24 25 28 29 28 28 28 28 28 27 26 26 26 24 21 23
9 10 11 12 12 12 13 13 14 13 13 13 15 16 17 18 18 18 16 15 14 13 12 12 11 10 10 10 9 9 9 9 9 10 12 13 15 15 15 15 15 16 17 16 16 19 23 24 24 27 28 27 28 30 29 28 28 29 29 29 27 25 23
9 9 10 11 11 11 11 12 12 13 13 13 14 15 16 18 18 18 18 17 16 15 14 13 12 12 11 11 10 10 10 9 9 10 11 12 14 15 15 15 15 15 16 15 15 17 21 24 25 27 29 27 29 30 28 27 28 31 32 31 31 29 26
10 10 10 10 11 11 11 11 11 12 13 13 13 14 15 17 18 19 19 19 18 17 16 15 14 13 12 12 12 12 11 10 10 10 10 11 13 15 16 16 15 15 15 15 15 17 19 22 24 27 29 29 29 27 24 24 26 30 33 31 31 31 30
10 10 10 10 11 11 11 10 10 11 12 13 13 13 14 16 18 19 19 20 20 19 18 18 17 15 14 14 13 13 13 12 12 11 11 11 12 13 15 16 16 16 15 15 15 16 17 19 21 24 27 29 28 25 24 24 27 31 33 32 31 31 30
9 9 9 10 10 11 11 11 10 10 10 11 12 12 13 14 16 18 19 20 20 21 20 20 19 18 16 15 15 15 15 14 13 13 13 13 13 13 14 15 16 16 16 16 15 15 16 17 18 21 24 27 27 26 25 24 27 31 32 32 33 32 31
10 10 9 9 10 10 11 11 11 10 10 10 11 11 12 13 14 16 18 19 20 21 22 21 21 20 19 18 17 17 17 16 16 15 14 14 15 15 15 15 15 16 16 16 17 17 16 16 17 19 20 23 25 26 25 24 25 29 32 33 33 33 32
12 12 12 11 10 10 11 11 11 11 10 10 10 10 11 12 13 14 16 17 19 20 21 22 22 22 21 20 19 18 19 19 18 17 16 16 16 15 16 16 16 16 17 17 18 18 18 17 18 19 19 19 20 22 24 24 25 27 28 30 31 32 33
14 15 15 14 13 12 12 12 12 11 11 10 10 10 11 11 12 13 14 16 17 19 20 21 22 22 23 22 21 20 20 20 20 20 19 18 17 16 16 16 16 17 17 18 19 20 20 19 19 19 20 19 19 19 21 22 23 24 24 24 25 29 32
15 15 16 15 15 14 14 14 13 13 12 11 10 10 11 11 11 12 13 15 16 17 19 20 21 22 23 23 23 23 22 22 22 21 21 20 19 18 17 17 17 17 18 19 20 21 21 21 21 21 21 21 21 20 20 20 21 23 24 24 23 25 29
17 16 16 16 16 16 15 15 14 14 13 12 11 11 11 11 12 12 13 14 15 16 18 19 20 21 22 23 24 24 24 23 23 23 22 22 21 20 19 18 18 18 19 19 20 21 22 22 22 23 23 23 23 22 22 21 21 23 25 26 27 27 29
19 19 18 17 17 16 16 15 15 15 14 14 13 12 12 12 13 13 14 14 15 16 17 19 20 21 22 23 24 24 24 24 24 24 23 23 22 21 20 20 20 20 20 20 21 21 22 22 23 24 25 25 25 24 24 24 24 24 25 26 29 30 31
22 21 20 19 19 18 17 17 16 16 15 15 14 14 13 13 13 14 15 15 16 17 17 18 19 20 21 22 23 24 25 25 25 25 24 24 23 23 22 22 21 21 21 21 22 22 23 23 24 24 25 25 26 26 26 26 27 27 27 27 29 30 31
22 22 22 22 21 20 20 19 18 18 17 17 16 15 15 14 14 15 15 16 17 18 18 19 19 20 21 22 23 24 25 26 26 25 25 25 24 24 23 23 22 22 22 22 22 23 23 24 24 24 24 25 26 27 27 28 29 28 29 30 31 31 31
21 21 21 21 22 22 21 21 21 20 20 19 18 18 17 16 16 16 16 16 17 18 19 20 20 21 22 22 23 23 24 25 26 26 26 25 26 25 24 24 24 24 23 23 23 23 24 24 25 25 25 25 26 27 28 29 30 30 31 32 33 33 32
19 20 20 20 21 21 21 22 22 22 22 21 21 20 19 19 18 18 18 18 18 19 20 21 21 22 23 23 24 24 24 24 25 26 26 27 27 26 26 25 25 25 24 24 24 24 25 25 26 25 26 26 26 27 28 29 29 30 31 33 34 35 35
19 19 20 20 21 21 21 21 21 21 22 22 22 22 21 21 20 20 19 19 19 20 20 21 22 23 23 24 24 25 25 25 25 26 27 28 28 28 27 27 26 25 25 25 25 25 26 26 26 27 27 27 27 27 28 29 30 30 31 33 35 36 37
19 20 20 21 21 22 22 22 22 22 22 22 21 22 22 23 22 22 21 21 20 21 21 21 22 23 24 24 25 25 25 25 26 26 27 28 29 29 29 28 28 27 26 26 26 26 27 27 27 28 28 28 28 28 28 29 30 30 31 33 34 35 37
19 19 20 21 22 22 23 23 24 24 24 23 22 22 22 22 23 23 23 23 22 22 22 22 23 23 24 24 25 26 26 26 26 27 28 29 30 30 30 30 30 29 27 27 27 27 27 28 28 28 29 29 29 29 30 30 31 31 32 32 33 34 36
17 18 19 20 21 22 23 24 25 26 26 26 25 24 23 23 23 23 24 24 25 24 23 23 23 24 24 25 25 26 27 27 27 28 29 30 31 32 32 32 32 31 29 28 28 27 28 28 29 29 29 30 30 30 31 31 32 32 33 33 33 34 35
16 17 18 19 20 22 23 24 25 26 27 27 27 27 27 26 25 24 24 24 25 25 26 25 25 24 25 25 26 26 27 28 28 29 29 30 31 32 33 34 34 33 32 31 29 28 28 28 29 29 30 30 30 30 31 32 33 33 33 34 34 34 35
15 15 16 18 19 20 22 23 25 26 28 29 29 29 29 28 27 26 26 25 24 25 26 27 27 26 26 26 26 27 28 28 29 29 30 31 32 33 33 34 35 35 34 33 32 30 29 29 29 29 30 30 30 30 31 32 33 34 33 33 34 35 35
15 15 16 17 18 19 21 22 24 25 27 29 30 30 31 30 29 29 28 27 26 25 26 28 29 29 28 27 27 27 27 28 29 30 30 31 31 32 33 34 34 36 36 35 34 33 31 30 30 30 30 30 30 30 30 31 32 33 33 33 33 34 34
15 15 16 16 17 18 20 21 22 24 26 28 30 31 32 32 32 31 30 29 28 26 25 27 29 30 29 29 28 28 28 28 29 30 31 31 31 32 33 34 34 35 36 36 35 35 33 32 30 30 30 30 30 30 30 30 31 31 32 32 32 33 34
16 16 16 16 17 17 19 20 22 23 25 27 29 31 32 33 33 33 32 31 30 28 27 26 28 30 30 30 29 28 28 28 28 29 30 31 32 32 31 32 33 34 35 36 36 36 35 33 32 31 30 30 30 30 30 30 30 30 31 31 31 33 34
17 17 17 17 17 17 18 20 21 23 25 27 29 30 32 33 34 35 34 33 32 31 29 28 28 29 30 31 30 29 28 29 29 29 29 30 31 32 32 31 32 33 34 35 35 35 35 34 33 32 31 30 30 30 30 30 30 30 30 31 31 33 34
19 18 18 18 18 18 18 19 21 23 24 26 28 30 32 33 34 35 35 34 33 32 31 30 29 29 30 31 31 29 28 28 29 29 29 29 30 32 32 32 32 32 32 33 34 34 35 35 34 32 32 31 30 30 30 29 30 30 30 31 32 33 35
20 20 20 20 20 20 19 20 21 23 24 26 28 30 32 33 34 36 36 35 33 33 32 31 31 31 31 32 31 30 28 28 29 29 29 28 29 30 31 32 33 32 32 32 32 33 34 35 34 33 32 31 31 30 30 29 29 30 30 31 33 34 36
21 21 21 22 22 22 21 21 22 23 25 27 28 30 31 33 35 36 37 36 34 32 32 32 32 32 32 32 32 30 29 27 28 28 28 27 28 28 29 30 32 33 33 32 31 32 34 35 34 33 33 32 31 31 30 30 29 30 31 31 33 34 36
23 23 23 23 24 24 23 22 23 24 25 27 29 30 31 33 35 36 37 37 34 32 32 31 31 32 32 33 32 31 29 28 27 28 28 27 27 27 27 28 29 31 33 32 31 31 33 34 34 34 33 32 32 31 31 30 29 29 30 31 32 33 35
25 25 25 25 25 25 25 24 24 25 26 28 29 30 32 33 35 36 37 37 35 33 31 31 31 31 32 32 32 31 29 28 28 28 28 28 27 26 26 26 27 29 30 31 31 31 32 33 34 34 33 33 32 32 31 30 29 29 30 31 32 33 33
27 26 27 27 27 27 27 26 26 26 27 29 30 31 32 33 34 36 37 38 35 32 31 30 30 30 31 31 31 31 30 29 29 29 29 29 28 27 27 26 26 27 28 29 30 30 31 32 32 33 33 33 32 32 31 30 30 29 29 30 31 31 32
29 29 28 28 29 29 28 28 28 28 28 29 31 32 32 33 34 36 37 38 36 32 30 30 29 29 30 30 30 30 30 30 30 30 31 30 30 29 28 28 27 26 27 28 29 29 30 30 31 32 33 32 32 32 31 30 30 29 29 29 30 31 31
30 30 30 30 30 30 30 30 30 29 29 30 31 32 33 33 34 35 37 38 36 32 29 28 28 27 27 28 28 29 29 29 29 30 31 32 32 31 30 29 28 27 27 27 28 28 29 29 30 30 31 32 32 31 31 31 30 29 29 29 30 30 31
32 32 32 32 32 32 32 32 32 31 31 31 32 33 33 33 34 35 36 37 36 33 29 27 25 24 25 26 28 29 30 30 30 30 30 32 32 32 31 30 29 29 28 27 27 27 28 28 29 29 30 31 31 31 31 31 29 28 28 29 29 29 30
33 33 33 33 34 33 33 33 33 33 32 32 32 33 34 34 34 34 35 36 35 33 29 26 23 22 23 25 27 29 31 32 33 33 32 31 32 33 32 31 30 30 29 28 27 27 28 28 28 28 28 29 30 31 31 30 29 28 27 27 28 28 28
Wind_Direction
305 302 297 294 294 294 291 288 286 283 278 272 264 254 248 249 254 258 262 266 271 275 279 285 294 307 315 320 323 312 291 276 266 261 259 260 261 262 265 266 263 258 251 244 237 236 238 238 235 231 226 227 227 224 225 228 227 226 225 225 222 220 221
313 308 303 300 299 297 293 289 288 286 282 276 268 258 250 249 252 256 259 263 269 274 276 278 283 295 304 308 312 311 301 288 275 266 261 261 261 260 261 263 264 263 260 256 245 237 235 234 233 228 225 228 227 224 225 227 229 227 226 226 224 222 222
321 313 307 307 306 303 298 295 293 291 287 280 272 264 256 252 252 255 257 259 264 269 274 277 278 283 291 297 300 300 298 292 283 274 266 263 262 261 260 260 263 265 265 262 254 247 238 230 229 226 224 224 223 222 223 223 227 228 227 227 225 223 224
331 323 318 316 315 312 307 303 300 297 294 286 276 268 261 256 254 255 256 257 260 265 271 276 277 278 281 286 290 292 294 293 289 282 274 267 263 262 261 260 261 263 265 261 253 253 244 230 226 226 224 221 218 221 223 223 226 227 226 228 227 225 226
338 332 331 328 325 321 315 308 305 302 298 292 282 272 264 259 257 256 256 257 259 262 267 271 274 275 275 278 282 285 288 289 288 286 281 273 267 264 262 261 261 259 263 263 257 258 252 238 230 226 224 221 217 218 224 227 229 227 225 227 228 227 228
341 337 336 335 332 326 319 314 310 305 300 295 289 280 270 263 260 258 258 258 260 261 263 266 269 272 272 273 275 278 280 282 283 284 282 278 271 267 264 261 262 260 261 264 263 262 260 253 242 231 225 223 221 221 223 227 229 227 225 227 229 228 228
344 341 339 337 335 330 326 323 317 311 306 300 293 286 279 271 265 261 259 259 260 261 262 263 265 268 270 271 272 273 274 275 277 279 279 279 275 270 267 263 262 261 262 262 263 262 261 260 255 243 233 230 230 230 228 228 230 228 227 229 231 231 229
350 346 343 341 340 339 335 329 320 313 313 309 302 294 287 279 272 266 262 260 259 259 260 261 263 265 267 269 269 270 270 270 271 271 273 275 276 273 270 268 265 263 262 261 261 261 259 259 259 256 248 240 238 235 231 231 231 229 229 231 232 233 232
360 354 353 348 345 344 341 337 331 322 316 311 306 303 298 291 283 275 269 264 261 260 260 261 262 263 265 267 268 268 268 267 267 268 268 269 272 273 271 270 268 266 264 262 261 261 259 258 257 258 257 253 249 243 237 235 232 229 231 234 235 236 235
5 1 360 357 352 346 342 340 339 335 328 317 308 304 303 302 297 289 281 273 268 264 262 262 262 262 263 265 266 266 266 266 265 265 266 267 268 270 271 271 270 268 266 264 262 261 259 258 257 256 257 256 255 252 248 243 237 233 233 233 237 242 241
7 3 2 1 358 353 347 340 336 334 333 328 319 310 304 302 302 300 294 287 279 273 269 266 264 263 263 263 264 264 264 264 264 264 264 265 265 266 267 269 270 269 267 265 264 262 260 258 256 256 255 254 253 253 253 250 245 240 236 229 229 238 243
14 8 5 2 359 356 352 347 340 336 332 329 326 322 315 307 302 300 298 296 291 284 278 273 270 267 265 265 264 263 263 262 262 261 262 262 262 261 262 265 267 268 268 267 265 264 263 260 257 255 254 253 252 251 251 251 250 247 244 236 230 232 235
20 16 11 7 2 358 354 351 348 344 339 335 329 325 322 317 309 302 298 296 295 292 287 282 277 273 270 267 266 264 263 262 260 259 258 258 258 258 260 262 265 266 267 266 266 265 264 263 260 257 255 253 252 251 249 248 248 248 248 244 240 240 241
23 21 18 15 11 6 1 358 354 350 347 343 338 331 325 319 314 308 302 298 296 294 291 288 284 280 276 272 269 266 264 263 261 259 256 254 253 254 257 260 263 264 265 265 265 265 265 265 263 260 258 256 254 252 249 248 247 246 247 248 246 246 247
24 23 22 20 18 14 10 7 3 359 354 349 345 339 333 325 318 311 306 302 298 295 293 291 288 285 281 278 274 270 267 265 262 259 256 253 250 251 254 258 262 263 263 264 264 264 264 264 264 263 261 260 257 255 252 250 248 246 246 248 249 248 248
23 23 23 22 20 18 15 13 10 6 1 356 351 345 339 334 327 319 312 307 302 298 295 293 291 288 285 282 278 274 270 267 265 261 257 252 249 250 253 257 260 262 263 263 262 262 262 263 264 264 263 261 260 258 255 253 251 249 247 247 249 250 250
20 21 22 22 21 20 18 15 13 9 6 1 357 352 345 339 333 326 320 313 307 302 298 294 292 290 287 285 282 278 273 269 266 263 258 253 248 248 251 255 258 261 262 263 263 262 261 262 262 263 263 262 261 260 258 256 254 252 250 249 249 251 251
15 17 18 19 19 19 18 16 14 11 8 4 0 356 351 345 339 333 326 319 313 307 302 297 293 290 288 286 283 281 278 274 269 265 260 254 250 249 251 254 257 259 261 263 265 264 263 262 262 262 263 262 261 261 260 259 257 255 253 251 251 251 252
9 12 13 14 15 16 15 14 13 11 9 6 3 358 353 348 343 339 334 326 319 312 306 301 296 292 289 286 284 282 280 277 274 269 263 256 252 251 253 255 257 258 260 261 263 264 264 263 263 262 262 262 262 261 260 259 258 256 254 253 252 252 252
5 7 9 10 11 11 12 11 10 9 7 6 3 359 355 349 345 341 337 333 327 319 312 306 300 296 291 287 285 283 280 278 276 273 268 262 257 254 254 255 257 258 260 261 262 263 264 264 264 263 262 262 262 261 260 259 258 257 256 254 253 253 253
1 3 5 7 8 8 9 9 8 7 6 4 2 360 357 353 348 343 338 334 330 325 319 312 305 300 295 290 286 283 280 278 275 273 271 268 263 259 256 256 256 257 259 260 261 263 264 264 264 264 263 262 262 262 261 261 259 258 257 256 255 254 253
354 359 1 3 5 6 7 7 7 6 5 4 2 360 358 354 350 346 340 335 330 326 323 319 312 305 299 294 289 284 281 278 275 273 272 270 267 264 261 259 258 257 257 259 260 261 263 264 265 265 264 263 262 261 262 261 261 259 258 257 256 255 255
346 351 355 358 1 3 4 5 6 6 4 3 2 0 358 355 351 347 344 339 333 327 323 321 318 313 305 299 293 288 283 278 275 273 272 270 269 267 264 262 261 260 258 258 259 259 261 264 265 265 265 265 264 263 262 261 261 260 259 258 257 256 257
336 341 346 350 354 358 360 1 2 3 3 2 1 360 358 355 352 348 345 341 336 329 323 320 318 316 312 305 299 293 287 281 277 273 271 270 269 268 266 264 263 262 260 259 259 259 259 261 264 265 265 264 264 264 263 261 260 260 259 258 257 257 257
327 332 336 341 346 351 354 356 357 358 359 359 358 358 357 355 353 350 346 342 338 332 326 320 317 316 314 310 303 298 293 287 281 276 271 269 268 268 267 266 264 263 262 261 259 258 258 259 261 263 264 264 263 263 263 262 260 259 259 258 258 257 257
319 323 327 331 337 343 347 350 351 353 354 355 355 355 355 354 353 350 347 343 339 335 330 323 318 315 314 312 307 302 297 293 289 282 276 270 267 266 267 267 265 264 264 263 261 258 257 257 258 260 262 262 262 261 261 260 260 260 259 259 258 258 258
313 316 319 322 327 333 339 343 345 347 349 350 351 351 352 352 351 350 347 344 341 337 333 328 322 316 313 312 310 305 300 296 294 290 284 276 270 266 265 266 266 265 264 263 262 260 258 257 257 258 259 259 259 260 259 259 260 260 260 260 260 260 259
309 312 314 316 319 324 330 335 339 342 344 345 347 347 348 349 349 348 347 344 341 338 335 331 326 320 315 313 311 308 304 299 296 294 290 284 276 269 265 264 265 266 265 264 262 261 260 258 258 258 259 258 258 258 259 260 261 261 262 263 263 262 262
306 309 311 313 314 317 322 328 332 335 338 340 342 343 344 345 346 346 345 343 341 339 337 334 329 324 318 314 312 311 307 302 298 297 295 290 283 276 269 266 265 266 266 265 264 262 261 259 257 258 258 258 257 257 258 259 261 263 264 264 264 264 263
304 306 307 309 310 312 315 321 326 329 331 334 337 339 340 342 343 343 343 342 340 338 338 335 332 327 321 317 314 312 310 305 300 298 297 294 289 282 274 269 266 265 266 266 265 263 262 259 257 257 257 258 258 257 258 259 261 264 265 266 266 265 263
305 305 306 307 308 309 311 315 320 324 326 329 332 334 337 339 340 341 341 340 339 337 337 336 333 328 323 318 315 314 312 308 304 301 299 297 293 287 280 274 270 267 267 267 266 264 262 261 259 258 257 258 257 257 258 260 263 266 268 269 269 267 265
305 306 306 306 307 307 308 311 315 319 323 325 327 330 333 335 337 338 339 339 337 336 335 335 332 328 324 320 317 315 314 311 307 303 301 299 296 292 285 279 274 271 269 268 266 265 263 262 260 259 257 257 257 257 258 261 264 268 270 272 272 270 265
306 305 305 305 305 306 307 308 311 315 319 321 323 326 329 332 334 335 336 337 336 334 333 332 331 329 325 322 320 319 317 314 310 306 303 300 299 295 290 284 279 275 273 270 268 266 264 262 261 259 258 258 258 258 259 261 265 269 272 274 274 271 265
305 305 305 304 304 305 306 307 308 310 314 318 320 323 326 329 331 333 334 335 335 333 331 330 331 329 326 324 324 324 322 319 314 310 306 302 300 297 292 287 283 279 276 273 270 266 264 262 261 260 259 258 259 259 259 262 266 270 274 276 275 270 264
304 304 304 303 304 304 305 305 305 307 311 315 317 320 323 326 329 331 332 334 334 331 329 329 330 330 328 327 329 331 329 326 321 315 309 305 301 298 293 288 284 281 279 276 272 267 264 261 261 261 260 259 259 260 260 262 266 271 275 277 276 269 262
303 303 303 303 303 303 303 303 304 305 308 312 315 317 320 323 327 329 330 332 332 330 327 327 328 329 328 329 330 332 331 330 327 322 316 308 303 299 295 289 284 281 280 279 275 270 265 262 261 261 261 260 260 260 260 262 266 271 276 278 275 268 259
302 302 302 302 301 301 302 302 303 304 306 309 312 315 318 321 324 328 329 330 331 328 325 324 326 326 326 328 330 331 331 329 327 324 320 314 306 300 296 291 285 279 277 277 276 272 267 263 261 260 260 260 260 260 260 262 266 271 276 278 274 264 257
Height
5764 5763 5763 5762 5761 5761 5761 5760 5760 5759 5759 5759 5760 5760 5761 5762 5762 5763 5763 5763 5763 5763 5762 5762 5762 5761 5761 5760 5760 5759 5759 5759 5759 5759 5759 5759 5759 5759 5758 5758 5759 5759 5759 5760 5760 5761 5761 5762 5763 5764 5765 5768 5770 5772 5773 5774 5775 5777 5779 5780 5780 5781 5782
5763 5763 5762 5761 5760 5760 5760 5759 5758 5758 5758 5758 5758 5758 5759 5760 5760 5761 5761 5762 5762 5761 5761 5760 5760 5760 5760 5759 5759 5758 5758 5758 5757 5757 5758 5758 5757 5757 5757 5757 5757 5757 5757 5758 5759 5759 5760 5760 5761 5762 5763 5764 5767 5770 5770 5771 5772 5773 5775 5777 5778 5779 5780
5763 5762 5761 5760 5759 5759 5759 5758 5757 5757 5756 5756 5756 5757 5757 5758 5759 5759 5760 5760 5760 5759 5759 5759 5759 5759 5759 5758 5758 5757 5757 5756 5756 5756 5756 5756 5756 5756 5755 5755 5755 5755 5755 5755 5756 5757 5757 5758 5759 5759 5760 5761 5763 5766 5767 5768 5769 5770 5772 5774 5775 5776 5777
5762 5761 5760 5759 5758 5758 5758 5757 5756 5755 5755 5755 5755 5755 5755 5756 5757 5757 5757 5758 5758 5758 5758 5757 5757 5757 5757 5757 5756 5756 5756 5755 5755 5754 5754 5755 5754 5754 5754 5753 5753 5753 5753 5753 5754 5754 5755 5756 5756 5756 5757 5758 5760 5762 5765 5765 5765 5766 5768 5770 5772 5774 5775
5761 5761 5760 5759 5758 5757 5757 5756 5755 5754 5754 5753 5753 5753 5753 5754 5754 5755 5755 5756 5756 5756 5756 5756 5756 5755 5755 5755 5755 5754 5754 5754 5753 5753 5753 5753 5753 5753 5752 5752 5752 5752 5751 5751 5752 5752 5752 5753 5753 5753 5754 5756 5757 5759 5761 5763 5763 5763 5765 5767 5768 5770 5772
5761 5760 5759 5758 5757 5756 5756 5755 5754 5753 5753 5752 5751 5751 5751 5751 5752 5752 5753 5753 5753 5754 5754 5754 5754 5754 5753 5753 5753 5752 5752 5752 5752 5751 5751 5751 5751 5751 5751 5750 5750 5750 5750 5750 5750 5750 5750 5750 5751 5751 5752 5753 5754 5755 5756 5759 5761 5761 5761 5763 5765 5766 5768
5761 5760 5759 5758 5757 5756 5755 5754 5753 5752 5752 5751 5750 5750 5750 5749 5750 5750 5750 5751 5751 5751 5752 5752 5752 5752 5751 5751 5751 5750 5750 5750 5750 5749 5749 5749 5749 5749 5749 5749 5749 5748 5748 5748 5748 5748 5748 5748 5748 5749 5749 5750 5751 5752 5753 5754 5756 5757 5758 5760 5761 5763 5765
5760 5759 5758 5757 5756 5755 5754 5753 5752 5752 5751 5750 5749 5749 5748 5748 5748 5748 5748 5748 5749 5749 5749 5749 5749 5749 5749 5749 5748 5748 5748 5747 5747 5747 5747 5747 5747 5747 5747 5747 5747 5747 5747 5746 5746 5746 5747 5747 5747 5747 5747 5748 5748 5749 5750 5751 5752 5754 5755 5757 5759 5761 5762
5759 5758 5757 5757 5756 5755 5754 5753 5752 5751 5750 5749 5748 5748 5747 5746 5746 5746 5746 5746 5746 5746 5746 5747 5747 5747 5746 5746 5746 5746 5745 5745 5745 5744 5744 5744 5744 5745 5745 5745 5745 5745 5745 5745 5744 5744 5745 5745 5745 5745 5745 5746 5746 5746 5747 5748 5749 5751 5753 5755 5757 5759 5760
5759 5758 5757 5756 5755 5754 5753 5752 5751 5750 5749 5749 5748 5747 5746 5745 5745 5744 5744 5744 5743 5743 5743 5744 5744 5744 5744 5743 5743 5743 5743 5743 5742 5742 5742 5742 5742 5742 5742 5742 5742 5742 5742 5742 5742 5742 5743 5743 5743 5743 5743 5743 5744 5744 5745 5746 5747 5748 5750 5753 5756 5758 5759
5760 5758 5757 5756 5754 5753 5752 5751 5750 5749 5749 5748 5747 5746 5745 5744 5743 5743 5742 5742 5741 5741 5740 5740 5740 5740 5740 5740 5740 5740 5740 5740 5740 5739 5739 5739 5739 5739 5740 5740 5740 5740 5740 5740 5740 5740 5740 5740 5741 5741 5741 5741 5742 5742 5743 5743 5744 5745 5747 5749 5751 5755 5757
5760 5759 5757 5756 5755 5753 5752 5751 5749 5748 5748 5747 5746 5745 5744 5743 5742 5742 5741 5740 5739 5738 5738 5737 5737 5737 5737 5737 5737 5737 5737 5737 5737 5737 5736 5736 5736 5736 5737 5737 5737 5737 5737 5737 5737 5737 5737 5738 5738 5739 5739 5739 5739 5740 5741 5741 5742 5743 5744 5746 5747 5749 5752
5761 5759 5758 5756 5755 5753 5752 5751 5749 5748 5747 5746 5745 5744 5743 5742 5741 5740 5739 5738 5737 5737 5736 5735 5734 5734 5734 5734 5734 5733 5733 5734 5734 5734 5734 5734 5733 5733 5733 5734 5734 5734 5734 5734 5734 5734 5734 5734 5735 5735 5736 5736 5737 5738 5738 5739 5740 5740 5741 5743 5743 5744 5745
5762 5760 5758 5757 5755 5754 5752 5750 5749 5748 5746 5745 5743 5742 5741 5740 5739 5738 5737 5736 5735 5735 5734 5733 5732 5731 5731 5730 5730 5730 5730 5730 5730 5730 5730 5731 5731 5731 5731 5731 5731 5731 5731 5731 5731 5731 5731 5731 5731 5732 5733 5733 5734 5735 5736 5736 5737 5738 5738 5739 5740 5741 5742
5763 5761 5759 5757 5756 5754 5752 5750 5749 5747 5745 5744 5743 5741 5740 5739 5738 5737 5736 5734 5733 5732 5731 5731 5730 5729 5728 5727 5727 5727 5726 5726 5726 5727 5727 5727 5727 5727 5728 5728 5728 5728 5728 5728 5729 5729 5728 5728 5728 5729 5729 5730 5731 5731 5732 5733 5733 5735 5735 5736 5736 5737 5738
5764 5762 5760 5758 5756 5754 5752 5750 5748 5746 5745 5743 5742 5740 5739 5737 5736 5735 5734 5733 5731 5730 5729 5728 5727 5726 5725 5725 5724 5724 5723 5723 5723 5723 5723 5723 5724 5724 5724 5724 5724 5724 5724 5725 5725 5725 5726 5725 5725 5726 5726 5727 5727 5727 5728 5729 5730 5731 5732 5732 5732 5733 5734
5764 5762 5760 5758 5756 5754 5752 5750 5748 5746 5744 5742 5741 5739 5737 5736 5735 5733 5732 5731 5729 5728 5727 5726 5725 5724 5723 5722 5721 5721 5720 5720 5720 5719 5719 5720 5720 5720 5721 5721 5721 5721 5721 5721 5722 5722 5722 5722 5722 5722 5723 5723 5724 5724 5725 5725 5726 5727 5728 5728 5729 5729 5730
5764 5762 5760 5758 5756 5754 5752 5750 5748 5746 5744 5742 5740 5738 5736 5734 5733 5732 5730 5729 5728 5726 5725 5724 5722 5721 5720 5719 5718 5717 5717 5717 5716 5716 5716 5716 5716 5716 5717 5717 5717 5718 5718 5718 5718 5718 5718 5719 5719 5719 5719 5719 5720 5720 5721 5722 5722 5723 5724 5724 5724 5725 5726
5763 5762 5760 5758 5755 5753 5751 5749 5747 5745 5743 5741 5739 5737 5735 5733 5731 5730 5728 5727 5725 5724 5723 5721 5720 5719 5718 5716 5715 5715 5714 5713 5713 5712 5712 5712 5713 5713 5713 5713 5713 5714 5714 5715 5714 5714 5714 5714 5715 5715 5715 5715 5716 5716 5717 5717 5718 5718 5719 5720 5720 5721 5721
5763 5761 5759 5757 5755 5753 5751 5749 5747 5745 5742 5740 5738 5736 5734 5732 5730 5728 5726 5724 5723 5721 5720 5719 5717 5716 5715 5714 5713 5712 5711 5710 5709 5708 5708 5708 5709 5709 5709 5709 5709 5710 5710 5711 5710 5710 5710 5710 5710 5711 5711 5711 5711 5712 5712 5713 5713 5714 5715 5715 5716 5717 5717
5762 5760 5758 5756 5754 5752 5750 5748 5746 5743 5741 5739 5737 5735 5733 5730 5728 5726 5724 5722 5720 5719 5717 5716 5714 5713 5711 5710 5709 5708 5708 5707 5706 5705 5704 5704 5704 5704 5705 5705 5705 5706 5706 5706 5706 5706 5706 5706 5706 5706 5707 5707 5707 5708 5708 5708 5709 5709 5710 5711 5712 5712 5713
5760 5759 5757 5755 5753 5751 5749 5747 5744 5742 5740 5738 5736 5734 5731 5729 5726 5724 5722 5720 5718 5716 5714 5713 5711 5710 5708 5707 5706 5705 5704 5703 5702 5701 5701 5700 5699 5699 5700 5700 5700 5701 5702 5702 5702 5702 5702 5702 5702 5702 5702 5703 5703 5704 5704 5704 5704 5704 5706 5707 5707 5708 5708
5759 5757 5755 5754 5752 5750 5748 5746 5743 5741 5739 5737 5734 5732 5730 5727 5725 5722 5720 5718 5716 5714 5712 5710 5708 5706 5705 5704 5703 5701 5700 5699 5698 5698 5697 5696 5695 5695 5695 5696 5696 5696 5697 5697 5697 5698 5698 5698 5698 5698 5698 5698 5698 5699 5700 5700 5700 5700 5701 5702 5702 5703 5704
5758 5756 5754 5752 5750 5748 5746 5744 5742 5740 5737 5735 5733 5730 5728 5726 5723 5720 5718 5715 5713 5711 5709 5707 5705 5703 5701 5700 5699 5697 5696 5695 5694 5693 5693 5692 5691 5691 5690 5691 5691 5691 5691 5692 5692 5693 5694 5694 5694 5694 5694 5694 5694 5694 5695 5695 5695 5696 5696 5697 5698 5698 5699
5757 5755 5753 5751 5749 5747 5745 5742 5740 5738 5736 5733 5731 5729 5726 5724 5721 5718 5715 5713 5710 5708 5706 5704 5702 5700 5698 5696 5694 5693 5692 5691 5690 5689 5688 5687 5687 5686 5686 5686 5686 5686 5686 5686 5687 5688 5688 5689 5690 5690 5689 5689 5690 5690 5690 5690 5691 5691 5692 5692 5693 5693 5694
5755 5753 5751 5749 5747 5745 5743 5741 5738 5736 5734 5732 5729 5727 5724 5722 5719 5716 5713 5710 5707 5705 5703 5701 5698 5696 5694 5692 5690 5689 5688 5687 5685 5684 5684 5683 5682 5682 5681 5681 5681 5681 5681 5681 5681 5682 5683 5684 5685 5685 5685 5685 5685 5685 5685 5685 5686 5686 5687 5687 5688 5688 5689
5753 5751 5750 5748 5746 5743 5741 5739 5736 5734 5732 5730 5727 5725 5722 5719 5717 5714 5711 5708 5705 5702 5699 5697 5695 5693 5690 5688 5686 5685 5683 5682 5681 5680 5679 5678 5677 5677 5677 5676 5676 5676 5676 5676 5676 5677 5678 5679 5679 5680 5680 5680 5680 5680 5681 5681 5681 5681 5682 5682 5682 5682 5683
5751 5749 5748 5746 5744 5742 5739 5737 5734 5732 5730 5727 5725 5722 5720 5717 5715 5712 5709 5706 5702 5699 5696 5694 5691 5689 5687 5685 5682 5681 5679 5678 5677 5675 5674 5673 5672 5672 5672 5671 5671 5671 5671 5671 5671 5672 5672 5673 5674 5674 5674 5675 5675 5676 5676 5676 5676 5677 5677 5677 5677 5677 5677
5749 5747 5745 5743 5741 5739 5737 5735 5732 5730 5727 5725 5723 5720 5717 5715 5712 5709 5706 5703 5700 5697 5694 5691 5688 5686 5683 5681 5679 5677 5676 5674 5673 5671 5670 5669 5667 5667 5666 5666 5666 5666 5666 5666 5667 5667 5667 5668 5669 5669 5669 5670 5670 5671 5671 5671 5671 5671 5672 5672 5672 5672 5672
5747 5745 5743 5741 5739 5737 5735 5733 5730 5727 5725 5723 5720 5718 5715 5712 5710 5707 5704 5701 5697 5694 5691 5688 5685 5683 5680 5678 5675 5674 5672 5670 5669 5667 5666 5665 5663 5662 5662 5661 5661 5661 5661 5661 5662 5662 5662 5662 5663 5664 5664 5664 5665 5665 5666 5666 5666 5666 5666 5666 5666 5666 5666
5744 5742 5740 5738 5737 5735 5732 5730 5728 5725 5722 5720 5717 5715 5712 5709 5707 5704 5701 5698 5695 5692 5689 5685 5682 5680 5677 5674 5672 5670 5669 5667 5665 5664 5662 5661 5660 5658 5658 5657 5657 5656 5656 5656 5657 5657 5657 5657 5658 5659 5659 5659 5660 5660 5660 5661 5661 5661 5661 5661 5660 5660 5660
5741 5739 5737 5735 5734 5732 5730 5727 5725 5722 5720 5717 5715 5712 5709 5707 5704 5701 5698 5695 5692 5689 5686 5683 5680 5677 5674 5672 5669 5667 5665 5664 5662 5660 5659 5657 5656 5655 5654 5653 5653 5652 5651 5651 5652 5652 5652 5653 5653 5653 5654 5654 5655 5655 5655 5656 5656 5656 5655 5655 5654 5654 5654
5738 5736 5734 5732 5730 5728 5726 5724 5722 5719 5717 5714 5712 5709 5706 5704 5701 5698 5695 5692 5689 5685 5683 5680 5677 5674 5671 5669 5666 5664 5662 5660 5659 5657 5655 5654 5653 5651 5650 5649 5649 5648 5647 5647 5647 5647 5648 5648 5648 5648 5649 5649 5649 5650 5650 5651 5651 5650 5650 5649 5649 5648 5648
5734 5732 5731 5729 5727 5725 5723 5721 5718 5716 5714 5711 5709 5706 5703 5701 5698 5695 5692 5689 5686 5682 5679 5677 5674 5671 5669 5666 5664 5662 5659 5657 5655 5654 5652 5650 5649 5648 5646 5645 5644 5644 5643 5642 5642 5642 5643 5643 5643 5643 5643 5644 5644 5645 5645 5645 5645 5645 5644 5644 5643 5643 5643
5731 5729 5727 5725 5723 5721 5719 5717 5715 5713 5711 5708 5705 5702 5700 5697 5694 5691 5689 5686 5683 5679 5676 5674 5671 5669 5666 5664 5661 5659 5657 5655 5653 5650 5648 5646 5645 5644 5642 5641 5640 5639 5639 5638 5638 5638 5638 5638 5638 5638 5638 5639 5639 5639 5640 5640 5640 5640 5639 5638 5638 5637 5637
5727 5725 5723 5721 5719 5717 5715 5713 5711 5709 5707 5704 5702 5699 5696 5694 5691 5688 5685 5682 5680 5676 5673 5671 5668 5666 5664 5662 5659 5657 5655 5652 5650 5648 5645 5643 5641 5639 5638 5636 5635 5634 5634 5633 5633 5633 5633 5633 5633 5633 5633 5634 5634 5634 5635 5635 5635 5635 5634 5633 5633 5632 5632
5723 5721 5719 5717 5715 5713 5711 5709 5707 5705 5702 5700 5698 5695 5692 5690 5687 5684 5681 5679 5676 5673 5670 5668 5665 5663 5661 5659 5657 5655 5652 5649 5647 5645 5642 5640 5637 5635 5633 5632 5631 5630 5629 5629 5629 5628 5628 5628 5628 5628 5628 5629 5629 5629 5630 5630 5630 5630 5629 5629 5628 5627 5627